Location: The Saddle
(36.8333°N, 80.3417°W)
Time: 04:00:18
(UTC-05:00)

Transit 4A - Visible Passes

Search period start: 28 January 2022 00:00
Search period end: 07 February 2022 00:00
Orbit: 863 x 981 km, 66.8° (Epoch: 27 January)

Date Brightness Start Highest point End Pass type
(mag) Time Alt. Az. Time Alt. Az. Time Alt. Az.
28 Jan 9.8 05:45:02 10° SSE 05:50:10 31° ESE 05:55:27 10° NE visible
29 Jan 8.9 05:53:36 10° S 05:59:16 47° ESE 06:05:09 10° NE visible
30 Jan 8.1 06:02:30 10° SSW 06:08:27 73° ESE 06:14:38 10° NNE visible
31 Jan 10.6 04:29:06 10° SE 04:32:12 14° ESE 04:35:19 10° ENE visible
31 Jan 7.8 06:11:43 10° SSW 06:17:43 76° WNW 06:23:56 10° NNE visible
01 Feb 10.0 04:36:36 10° SSE 04:41:10 23° ESE 04:45:52 10° NE visible
01 Feb 8.1 06:21:14 10° SW 06:27:05 51° WNW 06:33:08 10° NNE visible
02 Feb 9.2 04:44:50 10° S 04:50:13 36° ESE 04:55:46 10° NE visible
02 Feb 8.5 06:31:04 10° WSW 06:36:31 35° NW 06:42:10 10° N visible
03 Feb 8.4 04:55:48 24° S 04:59:20 55° ESE 05:05:23 10° NE visible
03 Feb 8.9 06:41:12 10° WSW 06:46:04 24° NW 06:51:05 10° N visible
04 Feb 10.7 03:23:03 10° ESE 03:23:15 10° E 03:23:36 10° E visible
04 Feb 7.8 05:06:40 47° SSW 05:08:34 84° ESE 05:14:47 10° NNE visible
04 Feb 9.3 06:51:47 10° W 06:55:44 17° NW 06:59:45 10° N visible
05 Feb 10.3 03:33:26 16° E 03:33:26 16° E 03:36:01 10° ENE visible
05 Feb 7.8 05:17:02 59° WSW 05:17:51 66° WNW 05:24:04 10° NNE visible
06 Feb 10.0 03:43:29 22° ENE 03:43:29 22° ENE 03:46:16 10° NE visible
06 Feb 8.1 05:27:02 44° WNW 05:27:15 44° WNW 05:33:11 10° NNE visible
